| time (UTC) | temp F | wind direction | speed MPH | gust MPH | rain 1hr in | rain 24hr in | rain mn in | humidity % | barometer mb |
| 20260505083005 | 61 | 54 | 0.0 | 1.0 | 0.00 | 0.00 | 0.00 | 55 | 1016.9 |
| 20260505082505 | 61 | 63 | 1.0 | 2.0 | 0.00 | 0.00 | 0.00 | 55 | 1016.9 |
| 20260505082005 | 61 | 64 | 1.0 | 2.0 | 0.00 | 0.00 | 0.00 | 55 | 1016.9 |
| 20260505081505 | 62 | 180 | 1.0 | 1.0 | 0.00 | 0.00 | 0.00 | 55 | 1016.9 |
| 20260505081004 | 62 | 85 | 2.0 | 3.0 | 0.00 | 0.00 | 0.00 | 55 | 1016.9 |
| 20260505080505 | 62 | 77 | 0.0 | 0.0 | 0.00 | 0.00 | 0.00 | 54 | 1016.9 |
| 20260505080005 | 62 | 40 | 1.0 | 1.0 | 0.00 | 0.00 | 0.00 | 54 | 1016.9 |
| 20260505075505 | 62 | 65 | 1.0 | 1.0 | 0.00 | 0.00 | 0.00 | 54 | 1016.9 |
| 20260505075004 | 62 | 52 | 1.0 | 1.0 | 0.00 | 0.00 | 0.00 | 54 | 1016.9 |
| 20260505074505 | 62 | 263 | 1.0 | 2.0 | 0.00 | 0.00 | 0.00 | 54 | 1016.6 |
| 20260505074005 | 62 | 243 | 2.0 | 2.0 | 0.00 | 0.00 | 0.00 | 54 | 1016.6 |
| 20260505073505 | 62 | 74 | 2.0 | 2.0 | 0.00 | 0.00 | 0.00 | 54 | 1016.6 |
| 20260505073004 | 62 | 57 | 0.0 | 1.0 | 0.00 | 0.00 | 0.00 | 54 | 1016.6 |
| 20260505072504 | 62 | 59 | 1.0 | 1.0 | 0.00 | 0.00 | 0.00 | 55 | 1016.6 |
| 20260505072004 | 62 | 43 | 1.0 | 2.0 | 0.00 | 0.00 | 0.00 | 54 | 1016.6 |
| 20260505071504 | 62 | 253 | 2.0 | 2.0 | 0.00 | 0.00 | 0.00 | 55 | 1016.6 |
| 20260505071005 | 62 | 84 | 0.0 | 2.0 | 0.00 | 0.00 | 0.00 | 55 | 1016.6 |
| 20260505070505 | 62 | 43 | 1.0 | 1.0 | 0.00 | 0.00 | 0.00 | 55 | 1016.6 |
| 20260505070005 | 62 | 45 | 0.0 | 1.0 | 0.00 | 0.00 | 0.00 | 55 | 1016.6 |
| 20260505065504 | 62 | 59 | 1.0 | 2.0 | 0.00 | 0.00 | 0.00 | 55 | 1016.6 |
| 20260505065004 | 62 | 71 | 1.0 | 1.0 | 0.00 | 0.00 | 0.00 | 55 | 1016.6 |
| 20260505064504 | 62 | 48 | 0.0 | 0.0 | 0.00 | 0.00 | 0.00 | 55 | 1016.6 |
| 20260505064004 | 62 | 57 | 0.0 | 1.0 | 0.00 | 0.00 | 0.00 | 55 | 1016.6 |
| 20260505063504 | 62 | 57 | 1.0 | 1.0 | 0.00 | 0.00 | 0.00 | 55 | 1016.6 |
| 20260505063004 | 62 | 63 | 1.0 | 1.0 | 0.00 | 0.00 | 0.00 | 55 | 1016.6 |
| 20260505062505 | 62 | 47 | 0.0 | 0.0 | 0.00 | 0.00 | 0.00 | 55 | 1016.6 |
| 20260505062004 | 62 | 62 | 0.0 | 0.0 | 0.00 | 0.00 | 0.00 | 54 | 1016.6 |
| 20260505061504 | 62 | 50 | 0.0 | 0.0 | 0.00 | 0.00 | 0.00 | 54 | 1016.6 |
| 20260505061004 | 63 | 34 | 1.0 | 1.0 | 0.00 | 0.00 | 0.00 | 54 | 1016.6 |
| 20260505060504 | 63 | 56 | 2.0 | 2.0 | 0.00 | 0.00 | 0.00 | 54 | 1016.6 |
| 20260505060006 | 63 | 269 | 0.0 | 0.0 | 0.00 | 0.00 | 0.00 | 53 | 1016.6 |
| 20260505055505 | 63 | 41 | 1.0 | 1.0 | 0.00 | 0.00 | 0.00 | 53 | 1016.6 |
| 20260505055004 | 64 | 53 | 0.0 | 0.0 | 0.00 | 0.00 | 0.00 | 52 | 1016.6 |
| 20260505054505 | 64 | 42 | 0.0 | 0.0 | 0.00 | 0.00 | 0.00 | 52 | 1016.6 |
| 20260505054005 | 64 | 67 | 1.0 | 1.0 | 0.00 | 0.00 | 0.00 | 52 | 1016.6 |
| 20260505053505 | 64 | 50 | 0.0 | 0.0 | 0.00 | 0.00 | 0.00 | 52 | 1016.6 |
| 20260505053005 | 64 | 38 | 0.0 | 0.0 | 0.00 | 0.00 | 0.00 | 51 | 1016.6 |
| 20260505052505 | 64 | 50 | 1.0 | 2.0 | 0.00 | 0.00 | 0.00 | 51 | 1016.6 |
| 20260505052004 | 64 | 45 | 1.0 | 1.0 | 0.00 | 0.00 | 0.00 | 50 | 1016.9 |
| 20260505051505 | 65 | 52 | 1.0 | 1.0 | 0.00 | 0.00 | 0.00 | 50 | 1016.9 |
| 20260505051005 | 65 | 62 | 1.0 | 1.0 | 0.00 | 0.00 | 0.00 | 50 | 1016.9 |
| 20260505050505 | 65 | 80 | 1.0 | 1.0 | 0.00 | 0.00 | 0.00 | 50 | 1016.9 |
| 20260505041506 | 66 | 58 | 0.0 | 1.0 | 0.00 | 0.00 | 0.00 | 47 | 1016.6 |
| 20260505041004 | 66 | 68 | 0.0 | 1.0 | 0.00 | 0.00 | 0.00 | 47 | 1016.6 |
| 20260505040505 | 66 | 356 | 3.0 | 4.0 | 0.00 | 0.00 | 0.00 | 47 | 1016.6 |
| 20260505040005 | 66 | 57 | 0.0 | 0.0 | 0.00 | 0.00 | 0.00 | 47 | 1016.6 |
| 20260505035506 | 66 | 70 | 2.0 | 4.0 | 0.00 | 0.00 | 0.00 | 47 | 1016.6 |
| 20260505035004 | 66 | 98 | 1.0 | 1.0 | 0.00 | 0.00 | 0.00 | 47 | 1016.6 |
| 20260505034504 | 66 | 66 | 1.0 | 1.0 | 0.00 | 0.00 | 0.00 | 46 | 1016.6 |
| 20260505034004 | 66 | 50 | 1.0 | 2.0 | 0.00 | 0.00 | 0.00 | 46 | 1016.6 |
| 20260505033505 | 66 | 48 | 1.0 | 1.0 | 0.00 | 0.00 | 0.00 | 46 | 1016.6 |
| 20260505033005 | 66 | 63 | 0.0 | 1.0 | 0.00 | 0.00 | 0.00 | 46 | 1016.6 |
| 20260505032505 | 66 | 57 | 0.0 | 0.0 | 0.00 | 0.00 | 0.00 | 45 | 1016.6 |
| 20260505032006 | 66 | 49 | 0.0 | 1.0 | 0.00 | 0.00 | 0.00 | 45 | 1016.6 |
| 20260505031504 | 66 | 61 | 1.0 | 1.0 | 0.00 | 0.00 | 0.00 | 45 | 1016.6 |
| 20260505031005 | 66 | 48 | 1.0 | 1.0 | 0.00 | 0.00 | 0.00 | 45 | 1016.6 |
| 20260505030505 | 67 | 53 | 1.0 | 1.0 | 0.00 | 0.00 | 0.00 | 44 | 1016.6 |
| 20260505030006 | 67 | 57 | 0.0 | 0.0 | 0.00 | 0.00 | 0.00 | 44 | 1016.6 |
| 20260505025504 | 67 | 55 | 0.0 | 0.0 | 0.00 | 0.00 | 0.00 | 44 | 1016.6 |
| 20260505025005 | 67 | 55 | 1.0 | 1.0 | 0.00 | 0.00 | 0.00 | 44 | 1016.6 |
| 20260505024505 | 67 | 56 | 1.0 | 1.0 | 0.00 | 0.00 | 0.00 | 44 | 1016.6 |
| 20260505024007 | 67 | 59 | 0.0 | 1.0 | 0.00 | 0.00 | 0.00 | 43 | 1016.6 |
| 20260505023506 | 67 | 65 | 1.0 | 1.0 | 0.00 | 0.00 | 0.00 | 43 | 1016.6 |
| 20260505023006 | 67 | 55 | 1.0 | 1.0 | 0.00 | 0.00 | 0.00 | 42 | 1016.6 |
| 20260505022507 | 67 | 57 | 1.0 | 1.0 | 0.00 | 0.00 | 0.00 | 42 | 1016.6 |
| 20260505022005 | 67 | 44 | 1.0 | 1.0 | 0.00 | 0.00 | 0.00 | 42 | 1016.6 |
| 20260505021507 | 67 | 41 | 1.0 | 2.0 | 0.00 | 0.00 | 0.00 | 42 | 1016.6 |
| 20260505021007 | 67 | 65 | 1.0 | 1.0 | 0.00 | 0.00 | 0.00 | 41 | 1016.6 |
| 20260505020507 | 67 | 68 | 1.0 | 1.0 | 0.00 | 0.00 | 0.00 | 42 | 1016.6 |
| 20260505020005 | 68 | 71 | 1.0 | 1.0 | 0.00 | 0.00 | 0.00 | 41 | 1016.6 |
| 20260505015505 | 68 | 71 | 1.0 | 1.0 | 0.00 | 0.00 | 0.00 | 41 | 1016.6 |
| 20260505015004 | 68 | 54 | 0.0 | 0.0 | 0.00 | 0.00 | 0.00 | 41 | 1016.6 |
| 20260505014505 | 68 | 50 | 1.0 | 1.0 | 0.00 | 0.00 | 0.00 | 41 | 1016.3 |
| 20260505014005 | 68 | 0 | 1.0 | 1.0 | 0.00 | 0.00 | 0.00 | 41 | 1016.3 |
| 20260505013504 | 68 | 66 | 0.0 | 1.0 | 0.00 | 0.00 | 0.00 | 40 | 1015.9 |
| 20260505013004 | 68 | 58 | 1.0 | 1.0 | 0.00 | 0.00 | 0.00 | 40 | 1015.9 |
| 20260505012504 | 68 | 25 | 1.0 | 1.0 | 0.00 | 0.00 | 0.00 | 40 | 1015.9 |
| 20260505012006 | 69 | 51 | 0.0 | 1.0 | 0.00 | 0.00 | 0.00 | 40 | 1016.3 |
| 20260505011506 | 69 | 57 | 0.0 | 0.0 | 0.00 | 0.00 | 0.00 | 39 | 1016.3 |
| 20260505011005 | 69 | 48 | 0.0 | 0.0 | 0.00 | 0.00 | 0.00 | 39 | 1015.9 |
| 20260505010506 | 69 | 23 | 2.0 | 2.0 | 0.00 | 0.00 | 0.00 | 38 | 1015.9 |
| 20260505010006 | 70 | 34 | 2.0 | 3.0 | 0.00 | 0.00 | 0.00 | 38 | 1015.9 |
| 20260505005504 | 70 | 54 | 1.0 | 1.0 | 0.00 | 0.00 | 0.00 | 37 | 1015.9 |
| 20260505005004 | 70 | 165 | 1.0 | 2.0 | 0.00 | 0.00 | 0.00 | 37 | 1015.9 |
| 20260505004504 | 71 | 41 | 0.0 | 0.0 | 0.00 | 0.00 | 0.00 | 36 | 1015.9 |
| 20260505004005 | 71 | 60 | 2.0 | 2.0 | 0.00 | 0.00 | 0.00 | 36 | 1015.9 |
| 20260505003505 | 71 | 55 | 1.0 | 1.0 | 0.00 | 0.00 | 0.00 | 35 | 1015.9 |
| 20260505003006 | 71 | 49 | 1.0 | 2.0 | 0.00 | 0.00 | 0.00 | 35 | 1015.9 |
| 20260505002504 | 71 | 59 | 2.0 | 3.0 | 0.00 | 0.00 | 0.00 | 35 | 1015.9 |
| 20260505002005 | 72 | 32 | 2.0 | 3.0 | 0.00 | 0.00 | 0.00 | 35 | 1015.9 |
| 20260505001504 | 72 | 36 | 3.0 | 3.0 | 0.00 | 0.00 | 0.00 | 34 | 1015.9 |
| 20260505001004 | 72 | 80 | 2.0 | 2.0 | 0.00 | 0.00 | 0.00 | 34 | 1015.9 |
| 20260505000504 | 72 | 25 | 3.0 | 4.0 | 0.00 | 0.00 | 0.00 | 34 | 1015.9 |
| 20260505000005 | 72 | 90 | 1.0 | 1.0 | 0.00 | 0.00 | 0.00 | 34 | 1015.9 |
| 20260504235504 | 72 | 269 | 4.0 | 6.0 | 0.00 | 0.00 | 0.00 | 34 | 1015.9 |
| 20260504235005 | 72 | 268 | 2.0 | 3.0 | 0.00 | 0.00 | 0.00 | 33 | 1015.9 |
| 20260504234504 | 72 | 99 | 2.0 | 4.0 | 0.00 | 0.00 | 0.00 | 33 | 1015.9 |
| 20260504234005 | 73 | 262 | 4.0 | 5.0 | 0.00 | 0.00 | 0.00 | 33 | 1015.9 |
| 20260504233504 | 73 | 23 | 2.0 | 2.0 | 0.00 | 0.00 | 0.00 | 32 | 1015.2 |
| 20260504233004 | 73 | 244 | 5.0 | 9.0 | 0.00 | 0.00 | 0.00 | 32 | 1015.2 |
| 20260504232505 | 74 | 342 | 2.0 | 2.0 | 0.00 | 0.00 | 0.00 | 31 | 1015.2 |
| 20260504232006 | 74 | 104 | 2.0 | 3.0 | 0.00 | 0.00 | 0.00 | 30 | 1015.2 |
| 20260504231506 | 74 | 260 | 2.0 | 6.0 | 0.00 | 0.00 | 0.00 | 30 | 1015.2 |
| 20260504231005 | 74 | 29 | 0.0 | 1.0 | 0.00 | 0.00 | 0.00 | 30 | 1015.2 |
| 20260504230505 | 74 | 76 | 2.0 | 2.0 | 0.00 | 0.00 | 0.00 | 30 | 1015.2 |
| 20260504230009 | 76 | 253 | 2.0 | 5.0 | 0.00 | 0.00 | 0.00 | 28 | 1015.9 |
| 20260504225505 | 76 | 76 | 1.0 | 1.0 | 0.00 | 0.00 | 0.00 | 28 | 1015.9 |
| 20260504225005 | 75 | 60 | 4.0 | 4.0 | 0.00 | 0.00 | 0.00 | 29 | 1015.9 |
| 20260504224504 | 75 | 270 | 2.0 | 4.0 | 0.00 | 0.00 | 0.00 | 28 | 1015.2 |
| 20260504224005 | 75 | 92 | 4.0 | 9.0 | 0.00 | 0.00 | 0.00 | 28 | 1015.2 |
| 20260504223504 | 77 | 40 | 3.0 | 3.0 | 0.00 | 0.00 | 0.00 | 27 | 1015.2 |
| 20260504223007 | 78 | 107 | 1.0 | 3.0 | 0.00 | 0.00 | 0.00 | 26 | 1015.2 |
| 20260504222506 | 77 | 69 | 2.0 | 2.0 | 0.00 | 0.00 | 0.00 | 27 | 1015.2 |
| 20260504222006 | 78 | 79 | 2.0 | 3.0 | 0.00 | 0.00 | 0.00 | 26 | 1015.2 |
| 20260504221506 | 77 | 299 | 5.0 | 8.0 | 0.00 | 0.00 | 0.00 | 27 | 1015.2 |
| 20260504221005 | 76 | 156 | 2.0 | 8.0 | 0.00 | 0.00 | 0.00 | 28 | 1014.9 |
| 20260504220505 | 77 | 253 | 2.0 | 2.0 | 0.00 | 0.00 | 0.00 | 27 | 1014.9 |
| 20260504220004 | 78 | 4 | 3.0 | 3.0 | 0.00 | 0.00 | 0.00 | 26 | 1015.2 |
| 20260504215506 | 80 | 256 | 4.0 | 6.0 | 0.00 | 0.00 | 0.00 | 24 | 1015.2 |
| 20260504215006 | 80 | 77 | 2.0 | 5.0 | 0.00 | 0.00 | 0.00 | 24 | 1015.2 |
| 20260504214505 | 80 | 282 | 4.0 | 7.0 | 0.00 | 0.00 | 0.00 | 24 | 1015.2 |
| 20260504214004 | 80 | 26 | 3.0 | 5.0 | 0.00 | 0.00 | 0.00 | 24 | 1015.2 |
| 20260504213504 | 81 | 38 | 1.0 | 1.0 | 0.00 | 0.00 | 0.00 | 24 | 1015.2 |
| 20260504213005 | 82 | 278 | 2.0 | 3.0 | 0.00 | 0.00 | 0.00 | 23 | 1015.2 |
| 20260504212507 | 82 | 53 | 2.0 | 2.0 | 0.00 | 0.00 | 0.00 | 24 | 1015.9 |
| 20260504212006 | 82 | 268 | 2.0 | 4.0 | 0.00 | 0.00 | 0.00 | 24 | 1015.9 |
| 20260504211506 | 81 | 75 | 2.0 | 4.0 | 0.00 | 0.00 | 0.00 | 24 | 1015.9 |
| 20260504211006 | 81 | 312 | 4.0 | 7.0 | 0.00 | 0.00 | 0.00 | 23 | 1015.2 |
| 20260504210507 | 80 | 195 | 5.0 | 5.0 | 0.00 | 0.00 | 0.00 | 24 | 1015.2 |
| 20260504210007 | 80 | 274 | 2.0 | 3.0 | 0.00 | 0.00 | 0.00 | 25 | 1015.9 |
| 20260504205504 | 81 | 340 | 4.0 | 4.0 | 0.00 | 0.00 | 0.00 | 24 | 1015.9 |
| 20260504205007 | 82 | 246 | 2.0 | 6.0 | 0.00 | 0.00 | 0.00 | 24 | 1015.9 |
| 20260504204506 | 81 | 57 | 1.0 | 6.0 | 0.00 | 0.00 | 0.00 | 23 | 1015.9 |
| 20260504204005 | 81 | 238 | 5.0 | 5.0 | 0.00 | 0.00 | 0.00 | 23 | 1015.9 |
| 20260504203505 | 82 | 56 | 3.0 | 4.0 | 0.00 | 0.00 | 0.00 | 23 | 1015.9 |
| 20260504203006 | 82 | 145 | 1.0 | 2.0 | 0.00 | 0.00 | 0.00 | 23 | 1015.9 |
| 20260504202507 | 81 | 248 | 5.0 | 9.0 | 0.00 | 0.00 | 0.00 | 24 | 1015.9 |
| 20260504202006 | 80 | 337 | 6.0 | 8.0 | 0.00 | 0.00 | 0.00 | 24 | 1015.9 |
| 20260504201505 | 81 | 4 | 3.0 | 4.0 | 0.00 | 0.00 | 0.00 | 24 | 1015.9 |
| 20260504201005 | 80 | 305 | 5.0 | 5.0 | 0.00 | 0.00 | 0.00 | 24 | 1016.3 |
| 20260504200505 | 84 | 15 | 1.0 | 2.0 | 0.00 | 0.00 | 0.00 | 22 | 1016.3 |
| 20260504200006 | 83 | 76 | 1.0 | 1.0 | 0.00 | 0.00 | 0.00 | 23 | 1016.3 |
| 20260504195506 | 82 | 62 | 1.0 | 1.0 | 0.00 | 0.00 | 0.00 | 23 | 1016.3 |
| 20260504195007 | 81 | 258 | 3.0 | 6.0 | 0.00 | 0.00 | 0.00 | 24 | 1016.3 |
| 20260504194507 | 82 | 224 | 3.0 | 8.0 | 0.00 | 0.00 | 0.00 | 23 | 1016.6 |
| 20260504194005 | 83 | 265 | 3.0 | 3.0 | 0.00 | 0.00 | 0.00 | 23 | 1016.6 |
| 20260504193506 | 83 | 59 | 1.0 | 2.0 | 0.00 | 0.00 | 0.00 | 22 | 1016.6 |
| 20260504193005 | 82 | 70 | 1.0 | 1.0 | 0.00 | 0.00 | 0.00 | 23 | 1016.6 |
| 20260504192505 | 80 | 81 | 2.0 | 3.0 | 0.00 | 0.00 | 0.00 | 24 | 1016.6 |
| 20260504192005 | 80 | 265 | 2.0 | 2.0 | 0.00 | 0.00 | 0.00 | 24 | 1016.9 |
| 20260504191506 | 81 | 26 | 2.0 | 2.0 | 0.00 | 0.00 | 0.00 | 24 | 1016.9 |
| 20260504191005 | 81 | 98 | 2.0 | 7.0 | 0.00 | 0.00 | 0.00 | 23 | 1017.3 |
| 20260504190507 | 80 | 80 | 2.0 | 3.0 | 0.00 | 0.00 | 0.00 | 24 | 1017.3 |
| 20260504190006 | 80 | 45 | 1.0 | 3.0 | 0.00 | 0.00 | 0.00 | 24 | 1017.3 |
| 20260504185506 | 79 | 91 | 3.0 | 3.0 | 0.00 | 0.00 | 0.00 | 24 | 1017.3 |
| 20260504185005 | 79 | 105 | 2.0 | 4.0 | 0.00 | 0.00 | 0.00 | 24 | 1017.3 |
| 20260504184506 | 79 | 51 | 1.0 | 1.0 | 0.00 | 0.00 | 0.00 | 24 | 1017.3 |
| 20260504184006 | 79 | 241 | 5.0 | 5.0 | 0.00 | 0.00 | 0.00 | 24 | 1017.3 |
| 20260504183507 | 79 | 61 | 2.0 | 2.0 | 0.00 | 0.00 | 0.00 | 25 | 1017.6 |
| 20260504183007 | 79 | 198 | 1.0 | 1.0 | 0.00 | 0.00 | 0.00 | 24 | 1017.6 |
| 20260504182507 | 78 | 93 | 2.0 | 5.0 | 0.00 | 0.00 | 0.00 | 25 | 1017.6 |
| 20260504182007 | 78 | 329 | 3.0 | 3.0 | 0.00 | 0.00 | 0.00 | 24 | 1017.6 |
| 20260504181506 | 78 | 90 | 1.0 | 2.0 | 0.00 | 0.00 | 0.00 | 24 | 1017.6 |
| 20260504181007 | 78 | 194 | 3.0 | 8.0 | 0.00 | 0.00 | 0.00 | 24 | 1017.6 |
| 20260504180507 | 79 | 54 | 2.0 | 4.0 | 0.00 | 0.00 | 0.00 | 23 | 1017.6 |
| 20260504180008 | 78 | 79 | 5.0 | 5.0 | 0.00 | 0.00 | 0.00 | 24 | 1017.9 |
| 20260504175505 | 79 | 298 | 3.0 | 3.0 | 0.00 | 0.00 | 0.00 | 23 | 1017.9 |
| 20260504175006 | 78 | 243 | 5.0 | 8.0 | 0.00 | 0.00 | 0.00 | 23 | 1017.9 |
| 20260504174507 | 79 | 56 | 1.0 | 1.0 | 0.00 | 0.00 | 0.00 | 23 | 1017.9 |
| 20260504174006 | 77 | 72 | 2.0 | 4.0 | 0.00 | 0.00 | 0.00 | 24 | 1017.9 |
| 20260504173508 | 76 | 76 | 2.0 | 6.0 | 0.00 | 0.00 | 0.00 | 24 | 1017.9 |
| 20260504173007 | 77 | 220 | 3.0 | 3.0 | 0.00 | 0.00 | 0.00 | 24 | 1017.9 |
| 20260504172506 | 78 | 90 | 1.0 | 2.0 | 0.00 | 0.00 | 0.00 | 23 | 1017.9 |
| 20260504172004 | 77 | 184 | 1.0 | 1.0 | 0.00 | 0.00 | 0.00 | 24 | 1017.9 |
| 20260504171507 | 77 | 52 | 2.0 | 2.0 | 0.00 | 0.00 | 0.00 | 23 | 1017.9 |
| 20260504171005 | 77 | 75 | 1.0 | 1.0 | 0.00 | 0.00 | 0.00 | 24 | 1018.3 |
| 20260504170506 | 75 | 270 | 5.0 | 6.0 | 0.00 | 0.00 | 0.00 | 24 | 1018.3 |
| 20260504151007 | 71 | 51 | 1.0 | 2.0 | 0.00 | 0.00 | 0.00 | 27 | 1020.0 |
| 20260504150507 | 70 | 36 | 0.0 | 2.0 | 0.00 | 0.00 | 0.00 | 27 | 1020.0 |
| 20260504141010 | 64 | 49 | 0.0 | 0.0 | 0.00 | 0.00 | 0.00 | 38 | 1020.0 |
| 20260504140507 | 63 | 20 | 1.0 | 2.0 | 0.00 | 0.00 | 0.00 | 38 | 1020.0 |
| 20260504130507 | 58 | 82 | 1.0 | 2.0 | 0.00 | 0.00 | 0.00 | 45 | 1020.0 |
| 20260504110506 | 49 | 53 | 0.0 | 0.0 | 0.00 | 0.00 | 0.00 | 63 | 1020.7 |
| 20260504100506 | 49 | 51 | 0.0 | 0.0 | 0.00 | 0.00 | 0.00 | 59 | 1020.7 |